Погода в Петровке

Украина / Одесская область     47°20′29″N   30°36′54″E
темп.,
°C
ветер,
м/с
пор.,
м/с
влажн.,
%
обл.,
%
осадки,
мм/ч
давл.,
гПа
погр.,
м
2 марта, вт
вт223:00+1ссз4784100 0.1 1033383
02:00+1ссз3683100 0.1 1033253
05:000зсз238193 0.0 103295
08:00+1з348388 0.0 1031198
11:00+5з576426 0.0 1030840
14:00+8з796114 0.0 1027803
17:00+7з6116673 0.0 1024734
20:00+5зсз5137845 0.0 1024380
3 марта, ср
ср323:00+4ссз5148163 0.0 1025736
02:00+4с6118078 0.0 1026809
05:00+3ссз5117388 0.0 1027418
08:00+3ссз5117851 0.0 1029520
11:00+6ссз56590 0.0 1029952
14:00+8ссз45440 0.0 10291256
17:00+7сз245371 0.0 1028158
20:00+4зсз236485 0.0 102824
4 марта, чт
чт423:00+3зюз236721 0.0 102723
02:00+2юз347011 0.0 102637
05:00+1ююз46760 0.0 102395
08:00+3ююз59800 0.0 1022268
11:00+9юз69650 0.0 1019537
14:00+12юз79532 0.0 1016872
17:00+11зюз476278 0.0 1014208
20:00+7зюз347142 0.0 101445
5 марта, пт
пт523:00+6з22660 0.0 101322
02:00+5ююз23651 0.0 101322
05:00+5ю126999 0.0 101222
08:00+5ю337995 0.0 101286
11:00+11ююз455787 0.0 1011393
14:00+14сз454359 0.0 10101033
17:00+11ссз585823 0.0 1010376
20:00+7ссв598155 0.0 1012298
6 марта, сб
сб623:00+5ссв4790100 0.0 1013357
02:00+4с7993100 0.7 1015404
05:00+1ссв81291100 0.4 1017620
08:00+1ссв71068100 0.5 1020952
11:00+3с81049100 0.0 10211324
14:00+3с7941100 0.0 10221485
17:00+2с694067 0.0 10241996
20:000сз355333 0.0 1026137